Weather History for KVTP - April, 2014

Change the Weather History Date:

Tuesday, April 15, 2014

  Actual Average (KTAD) Record (KTAD)
Temperature  
Mean Temperature 34 °F 49 °F  
Max Temperature 46 °F 65 °F 84 °F (2002)
Min Temperature 21 °F 34 °F 11 °F (1961)
Degree Days  
Heating Degree Days 32 16  
Month to date heating degree days 263  
Since 1 July heating degree days 5092  
Cooling Degree Days 0 0  
Month to date cooling degree days 0  
Year to date cooling degree days 0  
Moisture  
Dew Point 7 °F    
Average Humidity 35    
Maximum Humidity 46    
Minimum Humidity 23    
Precipitation  
Precipitation 0.00 in 0.04 in 0.42 in (1977)
Month to date precipitation 0.51  
Year to date precipitation 2.29  
Sea Level Pressure  
Sea Level Pressure 30.06 in    
Wind  
Wind Speed 13 mph (SW)    
Max Wind Speed 21 mph    
Max Gust Speed 39 mph    
Visibility 10 miles    
Events      
T = Trace of Precipitation, MM = Missing Value Source: NWS Daily Summary

Daily Weather History Graph

Daily Weather History Graph

Search for Another Location

Airport or City:

Trip Planner

Search our weather history database for the weather conditions in past years. The results will help you decide how hot, cold, wet, or windy it might be!

Date:

Astronomy

Apr. 15, 2014 Rise Set
Actual Time 6:25 AM MDT 7:36 PM MDT
Civil Twilight 5:58 AM MDT 8:03 PM MDT
Nautical Twilight 5:26 AM MDT 8:35 PM MDT
Astronomical Twilight 4:53 AM MDT 9:09 PM MDT
Moon 8:18 PM MDT (4/15) 6:35 AM MDT (4/15)
Length of Visible Light 14h 04m
Length of Day
13h 10m
Full, 100% of the Moon is Illuminated
Apr 15
Full
Apr 22
Last Quarter
Apr 29
New
May 6
First Quarter
May 14
Full

Hourly Weather History & Observations

Time (MDT) Temp. Windchill Dew Point Humidity Pressure Visibility Wind Dir Wind Speed Gust Speed Precip Events Conditions
12:11 AM 23.0 °F 13.1 °F 5.0 °F 46% 30.18 in 10.0 mi WSW 9.2 mph - N/A   Clear
12:32 AM 23.0 °F 11.7 °F 3.2 °F 43% 30.18 in 10.0 mi WSW 11.5 mph 17.3 mph N/A   Clear
12:52 AM 23.0 °F 11.1 °F 3.2 °F 43% 30.17 in 10.0 mi WSW 12.7 mph 23.0 mph N/A   Clear
1:13 AM 23.0 °F 9.6 °F 3.2 °F 43% 30.16 in 10.0 mi SW 16.1 mph 26.5 mph N/A   Clear
1:28 AM 23.0 °F 10.6 °F 3.2 °F 43% 30.16 in 10.0 mi SW 13.8 mph 23.0 mph N/A   Clear
1:45 AM 23.0 °F 10.1 °F 3.2 °F 43% 30.15 in 10.0 mi SW 15.0 mph 24.2 mph N/A   Clear
2:12 AM 23.0 °F 9.2 °F 3.2 °F 43% 30.14 in 10.0 mi SW 17.3 mph 29.9 mph N/A   Clear
2:31 AM 23.0 °F 9.6 °F 3.2 °F 43% 30.14 in 10.0 mi SW 16.1 mph 25.3 mph N/A   Clear
2:53 AM 21.2 °F 6.8 °F 3.2 °F 46% 30.12 in 10.0 mi SW 17.3 mph 26.5 mph N/A   Clear
3:07 AM 21.2 °F 8.3 °F 3.2 °F 46% 30.14 in 10.0 mi SW 13.8 mph 24.2 mph N/A   Clear
3:31 AM 21.2 °F 8.3 °F 3.2 °F 46% 30.12 in 10.0 mi SW 13.8 mph 24.2 mph N/A   Clear
3:53 AM 21.2 °F 9.5 °F 3.2 °F 46% 30.13 in 10.0 mi SW 11.5 mph 21.9 mph N/A   Clear
4:13 AM 21.2 °F 10.1 °F 3.2 °F 46% 30.12 in 10.0 mi SW 10.4 mph 21.9 mph N/A   Clear
4:33 AM 21.2 °F 8.3 °F 3.2 °F 46% 30.12 in 10.0 mi SW 13.8 mph 24.2 mph N/A   Clear
4:50 AM 21.2 °F 9.5 °F 3.2 °F 46% 30.12 in 10.0 mi WSW 11.5 mph 23.0 mph N/A   Clear
5:06 AM 21.2 °F 7.3 °F 3.2 °F 46% 30.11 in 10.0 mi SW 16.1 mph 26.5 mph N/A   Clear
5:33 AM 21.2 °F 8.3 °F 3.2 °F 46% 30.12 in 10.0 mi SW 13.8 mph 25.3 mph N/A   Clear
5:51 AM 21.2 °F 9.5 °F 3.2 °F 46% 30.12 in 10.0 mi SW 11.5 mph 21.9 mph N/A   Clear
6:13 AM 21.2 °F 7.8 °F 3.2 °F 46% 30.12 in 10.0 mi WSW 15.0 mph 29.9 mph N/A   Clear
6:26 AM 21.2 °F 7.3 °F 1.4 °F 42% 30.12 in 10.0 mi SW 16.1 mph 31.1 mph N/A   Clear
6:51 AM 21.2 °F 7.3 °F 1.4 °F 42% 30.12 in 10.0 mi SW 16.1 mph 26.5 mph N/A   Clear
7:13 AM 21.2 °F 10.9 °F 1.4 °F 42% 30.13 in 10.0 mi SW 9.2 mph 20.7 mph N/A   Clear
7:32 AM 21.2 °F 7.3 °F 1.4 °F 42% 30.13 in 10.0 mi SW 16.1 mph 26.5 mph N/A   Clear
7:53 AM 24.8 °F 10.3 °F 1.4 °F 36% 30.12 in 10.0 mi SW 20.7 mph 29.9 mph N/A   Clear
8:10 AM 26.6 °F 13.8 °F 1.4 °F 34% 30.12 in 10.0 mi SW 17.3 mph 29.9 mph N/A   Clear
8:33 AM 26.6 °F 13.8 °F 1.4 °F 34% 30.12 in 10.0 mi SW 17.3 mph 28.8 mph N/A   Clear
8:50 AM 28.4 °F 15.8 °F 1.4 °F 31% 30.13 in 10.0 mi SW 18.4 mph 27.6 mph N/A   Clear
9:11 AM 30.2 °F 19.8 °F 3.2 °F 32% 30.13 in 10.0 mi SW 13.8 mph 25.3 mph N/A   Clear
9:32 AM 30.2 °F 19.8 °F 5.0 °F 34% 30.13 in 10.0 mi SW 13.8 mph 24.2 mph N/A   Clear
9:47 AM 32.0 °F 21.6 °F 5.0 °F 32% 30.12 in 10.0 mi SW 15.0 mph 28.8 mph N/A   Clear
10:02 AM 32.0 °F 22.5 °F 8.6 °F 38% 30.11 in 10.0 mi WSW 12.7 mph 26.5 mph N/A   Clear
10:50 AM 33.8 °F 23.5 °F 8.6 °F 35% 30.12 in 10.0 mi SW 16.1 mph 25.3 mph N/A   Clear
11:13 AM 35.6 °F 25.2 °F 10.4 °F 35% 30.12 in 10.0 mi SW 18.4 mph 33.4 mph N/A   Clear
11:51 AM 39.2 °F 31.6 °F 12.2 °F 33% 30.10 in 10.0 mi WSW 12.7 mph 27.6 mph N/A   Clear
12:13 PM 39.2 °F 30.8 °F 10.4 °F 31% 30.09 in 10.0 mi SW 15.0 mph 28.8 mph N/A   Clear
12:33 PM 42.8 °F 34.5 °F 10.4 °F 27% 30.08 in 10.0 mi SW 18.4 mph 31.1 mph N/A   Clear
12:52 PM 42.8 °F 35.8 °F 12.2 °F 29% 30.08 in 10.0 mi SW 13.8 mph 25.3 mph N/A   Clear
1:13 PM 42.8 °F 35.8 °F 10.4 °F 27% 30.08 in 10.0 mi SW 13.8 mph 26.5 mph N/A   Clear
1:33 PM 44.6 °F 40.2 °F 10.4 °F 25% 30.08 in 10.0 mi SW 8.1 mph - N/A   Clear
1:52 PM 42.8 °F 37.0 °F 10.4 °F 27% 30.07 in 10.0 mi SW 10.4 mph 24.2 mph N/A   Clear
2:03 PM 44.6 °F 41.4 °F 12.2 °F 27% 30.07 in 10.0 mi SW 5.8 mph - N/A   Clear
2:33 PM 44.6 °F 39.2 °F 12.2 °F 27% 30.06 in 10.0 mi SW 10.4 mph 21.9 mph N/A   Clear
2:53 PM 44.6 °F 40.2 °F 12.2 °F 27% 30.05 in 10.0 mi SW 8.1 mph 20.7 mph N/A   Clear
3:10 PM 46.4 °F 42.9 °F 12.2 °F 25% 30.03 in 10.0 mi SW 6.9 mph 25.3 mph N/A   Clear
3:33 PM 46.4 °F 41.9 °F 14.0 °F 27% 30.02 in 10.0 mi WSW 9.2 mph 28.8 mph N/A   Clear
3:53 PM 46.4 °F 41.5 °F 12.2 °F 25% 30.01 in 10.0 mi WSW 10.4 mph 21.9 mph N/A   Clear
4:08 PM 44.6 °F 39.7 °F 12.2 °F 27% 30.00 in 10.0 mi SW 9.2 mph 21.9 mph N/A   Clear
4:31 PM 46.4 °F 41.1 °F 10.4 °F 23% 29.98 in 10.0 mi SW 11.5 mph 29.9 mph N/A   Clear
4:48 PM 44.6 °F 38.8 °F 12.2 °F 27% 29.98 in 10.0 mi SW 11.5 mph 23.0 mph N/A   Clear
5:11 PM 42.8 °F 38.0 °F 12.2 °F 29% 29.98 in 10.0 mi SW 8.1 mph 24.2 mph N/A   Mostly Cloudy
5:31 PM 42.8 °F 36.6 °F 10.4 °F 27% 29.97 in 10.0 mi SW 11.5 mph 24.2 mph N/A   Overcast
5:49 PM 42.8 °F 35.8 °F 10.4 °F 27% 29.97 in 10.0 mi SW 13.8 mph 23.0 mph N/A   Mostly Cloudy
6:05 PM 42.8 °F 36.2 °F 10.4 °F 27% 29.96 in 10.0 mi SW 12.7 mph 26.5 mph N/A   Scattered Clouds
6:33 PM 41.0 °F 34.3 °F 10.4 °F 29% 29.95 in 10.0 mi SW 11.5 mph 24.2 mph N/A   Clear
6:52 PM 39.2 °F 31.6 °F 12.2 °F 33% 29.95 in 10.0 mi SW 12.7 mph 24.2 mph N/A   Clear
7:11 PM 39.2 °F 31.2 °F 14.0 °F 36% 29.95 in 10.0 mi SW 13.8 mph 27.6 mph N/A   Clear
7:30 PM 37.4 °F 28.5 °F 12.2 °F 36% 29.93 in 10.0 mi SW 15.0 mph 32.2 mph N/A   Clear
7:51 PM 37.4 °F 28.2 °F 12.2 °F 36% 29.94 in 10.0 mi SW 16.1 mph 27.6 mph N/A   Clear
8:11 PM 37.4 °F 26.9 °F 10.4 °F 33% 29.93 in 10.0 mi SW 20.7 mph 34.5 mph N/A   Clear
8:33 PM 35.6 °F 27.1 °F 8.6 °F 33% 29.93 in 10.0 mi SW 12.7 mph 31.1 mph N/A   Clear
8:45 PM 33.8 °F 23.5 °F 8.6 °F 35% 29.93 in 10.0 mi SW 16.1 mph 32.2 mph N/A   Clear
9:01 PM 33.8 °F 24.3 °F 8.6 °F 35% 29.95 in 10.0 mi SW 13.8 mph 36.8 mph N/A   Clear
9:27 PM 33.8 °F 25.8 °F 5.0 °F 30% 29.95 in 10.0 mi SW 10.4 mph 25.3 mph N/A   Clear
9:51 PM 33.8 °F 24.8 °F 5.0 °F 30% 29.95 in 10.0 mi SW 12.7 mph 26.5 mph N/A   Clear
10:06 PM 33.8 °F 23.9 °F 3.2 °F 28% 29.95 in 10.0 mi SW 15.0 mph 31.1 mph N/A   Clear
10:33 PM 33.8 °F 22.8 °F 3.2 °F 28% 29.93 in 10.0 mi SW 18.4 mph 35.7 mph N/A   Clear
10:49 PM 33.8 °F 24.3 °F 3.2 °F 28% 29.92 in 10.0 mi WSW 13.8 mph 32.2 mph N/A   Clear
11:12 PM 33.8 °F 23.9 °F 3.2 °F 28% 29.92 in 10.0 mi WSW 15.0 mph 32.2 mph N/A   Clear
11:19 PM 33.8 °F 23.5 °F 3.2 °F 28% 29.91 in 10.0 mi SW 16.1 mph 39.1 mph N/A   Clear
11:53 PM 33.8 °F 23.2 °F 3.2 °F 28% 29.91 in 10.0 mi SW 17.3 mph 31.1 mph N/A   Clear